Location: Chicago
(41.8500°N, 87.6500°W)
Time: 05:41:47
(UTC-06:00)

N. Korean satellite - Visible Passes

Search period start: 20 February 2018 00:00
Search period end: 02 March 2018 00:00
Orbit: 459 x 514 km, 97.2° (Epoch: 20 February)

Date Brightness Start Highest point End Pass type
(mag) Time Alt. Az. Time Alt. Az. Time Alt. Az.
20 Feb 8.8 06:02:22 10° NNE 06:05:43 33° E 06:09:05 10° SSE visible
20 Feb 8.4 18:12:13 10° SSW 18:15:23 34° W 18:18:36 10° NNW visible
21 Feb 10.0 05:39:20 10° NE 05:41:51 17° E 05:44:23 10° SE visible
23 Feb 9.7 18:35:16 10° SW 18:37:45 18° W 18:40:14 10° NW visible
24 Feb 8.9 06:00:53 10° NNE 06:04:14 32° E 06:07:36 10° SSE visible
24 Feb 8.4 18:10:39 10° SSW 18:13:51 36° W 18:17:08 10° NNW visible
25 Feb 10.1 05:37:52 10° NE 05:40:22 17° E 05:42:52 10° SE visible
27 Feb 9.7 18:33:37 10° SW 18:36:11 19° W 18:38:46 10° NW visible
28 Feb 8.3 18:09:02 10° SSW 18:12:17 38° W 18:15:37 10° NNW visible
01 Mar 10.1 05:36:21 10° NE 05:38:49 17° E 05:41:17 10° SE visible
